Location: Unspecified
(43.3830°N, 0.0000°E)
Time: 06:56:32
(UTC+00:00)

Explorer 7 - Pass Details

Date: 26 June 2019
Orbit: 485 x 680 km, 50.3° (Epoch: 13 October)

Event Time Altitude Azimuth Distance (km) Brightness Sun altitude
Rises 08:57:47 0° 268° (W) 2,746 10.0 47.2°
Reaches altitude 10° 09:00:04 10° 276° (W) 1,885 9.2 47.6°
Maximum altitude 09:04:09 40° 347° (NNW) 894 8.1 48.3°
Drops below altitude 10° 09:08:31 10° 57° (ENE) 2,007 10.2 49.1°
Sets 09:11:01 0° 65° (ENE) 2,948 11.0 49.5°
